Location: Bois de la Silve
(44.4667°N, 6.7833°E)
Time: 23:49:35
(UTC+00:00)

USA 238 DEB - Pass Details

Date: 24 October 2020
Orbit: 1001 x 1211 km, 63.5° (Epoch: 22 November)

Event Time Altitude Azimuth Distance (km) Brightness Sun altitude
Exits shadow 01:57:50 22° 99° (E) 2,073 5.5 -42.7°
Drops below altitude 10° 02:02:02 10° 61° (ENE) 2,874 6.6 -42.0°
Sets 02:05:17 0° 47° (NE) 3,867 7.4 -41.5°
